Flag for Poland Weather past 2 weeks in Toruń, Poland

Now
61 °F

Passing clouds.


Feels Like: 61 °F
Forecast: 53 / 67 °F
Wind: 2 mph from South

Location: Torun

Current Time: Jul 30, 2015 at 12:20:43 AM

Latest Report: Jul 29, 2015 at 11:00 PM


Visibility: 31 mi

Pressure: 29.67 "Hg

Humidity: 67%

Dew point: 50 °F

Location of ToruńLocation

Historic Weather in Toruń — Graph

°F

Toruń temperature yesterday

Maximum temperature yesterday: 70 °F (at 5:00 PM)
Minimum temperature yesterday: 57 °F (at 5:00 AM)
Average temperature yesterday: 64 °F

Past Weeks' High & Low Weather Summary

 TemperatureHumidityPressure
High93 °F (Jul 18, 2:00 PM)99% (Jul 23, 5:00 AM)30.10 "Hg (Jul 23, 5:00 AM)
Low46 °F (Jul 27, 4:00 AM)31% (Jul 18, 1:00 PM)29.59 "Hg (Jul 28, 2:00 PM)
Average66 °F67%29.87 "Hg
* Reported Jul 14 10:00 PM — Jul 29 10:00 PM, Toruń, Weather by CustomWeather, © 2015

Note: Actual official high and low records may vary slightly from our data, if they occured in-between our weather recording intervals... More about our weather records

Advertising

Toruń weather history for previous 24 hours

 ConditionsComfort  
Time TempWeatherWind HumidityBarometerVisibility
10:00 PM
Wed, Jul 29
61 °FOvercast.1 mph67%29.68 "Hg31 mi
9:00 PM63 °FOvercast.2 mph57%29.68 "Hg31 mi
8:00 PM67 °FPartly sunny.2 mph45%29.67 "Hg31 mi
7:00 PM68 °FPartly sunny.3 mph42%29.68 "Hg31 mi
6:00 PM69 °FPartly sunny.5 mph39%29.69 "Hg31 mi
5:00 PM70 °FPartly sunny.5 mph39%29.69 "Hg22 mi
4:00 PM68 °FPartly sunny.3 mph44%29.70 "Hg25 mi
3:00 PM69 °FPartly sunny.3 mph43%29.70 "Hg31 mi
2:00 PM69 °FPartly sunny.3 mph45%29.70 "Hg25 mi
1:00 PM68 °FScattered clouds.3 mph46%29.71 "Hg25 mi
12:00 PM69 °FScattered clouds.5 mph45%29.72 "Hg17 mi
11:00 AM69 °FScattered clouds.5 mph49%29.72 "Hg25 mi
10:00 AM67 °FScattered clouds.3 mph58%29.73 "Hg17 mi
9:00 AM63 °FPartly sunny.3 mph66%29.74 "Hg25 mi
8:00 AM61 °FPartly sunny.2 mph72%29.74 "Hg22 mi
6:00 AM58 °FOvercast.2 mph78%29.73 "Hg28 mi
5:00 AM57 °FPartly sunny.1 mph78%29.72 "Hg31 mi
4:00 AM58 °FOvercast.2 mph74%29.71 "Hg28 mi
3:00 AM58 °FPassing clouds.2 mph76%29.71 "Hg28 mi
2:00 AM58 °FPassing clouds.1 mph74%29.70 "Hg31 mi
1:00 AM60 °FPassing clouds.2 mph74%29.70 "Hg28 mi
12:00 AM60 °FOvercast.2 mph75%29.70 "Hg28 mi
Weather by CustomWeather, © 2015

See weather overviewHow to use our weather pages